Regional Weather Roundup
Issued by NWS

Home | Current Version | Previous Version | Text Only | Print | Product List | Glossary On
Versions: 1 2 3 4 5 6 7 8 9 10 11 12 13 14 15 16 17 18 19 20 21 22 23 24 25 26 27 28 29 30 31 32 33 34 35 36 37 38 39 40 41 42 43 44 45 46 47 48 49 50
000
ASUS46 KSEW 171010
RWRWA

WASHINGTON REGIONAL WEATHER ROUNDUP
NATIONAL WEATHER SERVICE SEATTLE WA
300 AM PDT WED SEP 17 2014

NOTE:"FAIR" INDICATES FEW OR NO CLOUDS BELOW 12,000 FEET WITH NO
SIGNIFICANT WEATHER AND/OR OBSTRUCTIONS TO VISIBILITY.

WAZ505-507>509-171100-
SEATTLE, TACOMA, EVERETT, AND VICINITY

CITY           SKY/WX    TMP DP  RH WIND       PRES   REMARKS
EVERETT        CLOUDY    58  54  86 CALM      29.85F
BOEING FIELD   CLOUDY    65  55  70 CALM      29.84S
RENTON         CLOUDY    62  57  83 CALM      29.84S
SEATAC AIRPORT CLOUDY    60  54  80 CALM      29.85F
JBLM-MCCHORD   CLOUDY    58  55  89 E3        29.81F
PUYALLUP       NOT AVBL
JBLM-FT LEWIS  CLOUDY    60  55  85 SW3       29.82F
TACOMA NARROWS CLOUDY    60  54  80 CALM      29.82F
$$

WAZ001-503-506-510-514-515-171100-
NORTH INTERIOR

CITY           SKY/WX    TMP DP  RH WIND       PRES   REMARKS
BELLINGHAM     CLOUDY    58  54  86 CALM      29.83F
FRIDAY HARBOR  CLOUDY    54  52  93 CALM      29.84F
EASTSOUND      CLOUDY    59  54  82 S6        29.81S
PORT ANGELES     N/A     60  54  80 CALM      29.83F
NAS WHIDBEY    CLOUDY    58  52  80 SE6       29.84F
BURLINGTON     CLEAR     57  55  94 CALM      29.85F
$$

WAZ020-022-039-040-504-511-512-171100-
SOUTHWEST INTERIOR

CITY           SKY/WX    TMP DP  RH WIND       PRES   REMARKS
SHELTON        CLOUDY    57  54  89 CALM      29.82F
OLYMPIA        CLOUDY    57  55  93 S3        29.83F
CHEHALIS       CLOUDY    59  57  94 CALM      29.83F
KELSO          MOCLDY    57  52  82 CALM      29.85F
VANCOUVER      PTCLDY    58  53  84 CALM      29.80F
SCAPPOOSE, OR  PTCLDY    57  55  93 W3        29.80F
PORTLAND, OR   PTCLDY    61  56  83 NW3       29.80F
$$

WAZ021-516-517-171100-
WASHINGTON COAST

CITY           SKY/WX    TMP DP  RH WIND       PRES   REMARKS
FORKS          CLOUDY    57  56  96 CALM      29.82F
HOQUIAM        CLOUDY    59  56  89 CALM      29.83F
ASTORIA, OR    MOCLDY    57  55  93 CALM      29.80F
$$

WAZ019-023-024-040-518-519-171100-
CASCADE MOUNTAINS AND COLUMBIA GORGE

CITY           SKY/WX    TMP DP  RH WIND       PRES   REMARKS
STAMPEDE PASS  NOT AVBL
TROUTDALE, OR  PTCLDY    58  53  84 CALM      29.79F
THE DALLES, OR MOCLDY    65  50  58 CALM      29.77F
$$

WAZ026-027-041>044-520-521-171100-
EAST SLOPES

CITY           SKY/WX    TMP DP  RH WIND       PRES   REMARKS
OMAK           PTCLDY    57  37  47 N5        29.79S
WENATCHEE      MOCLDY    70  45  40 W7        29.77F
ELLENSBURG     CLOUDY    59  47  64 E6        29.80F
YAKIMA         CLOUDY    62  51  67 W3        29.78F
$$

WAZ028-034-035-171100-
COLUMBIA BASIN

CITY           SKY/WX    TMP DP  RH WIND       PRES   REMARKS
EPHRATA        MOCLDY    58  43  57 N6        29.77F
MOSES LAKE     MOCLDY    56  43  61 NE5       29.78F
PASCO          MOCLDY    54  50  86 CALM      29.75F
HERMISTON, OR  PTCLDY    55  44  66 CALM      29.77F
$$

WAZ036>038-171100-
NORTHEAST WASHINGTON

CITY           SKY/WX    TMP DP  RH WIND       PRES   REMARKS
SPOKANE GEIGER CLOUDY    61  34  36 S9        29.84S
SPOKANE FELTS  PTCLDY    54  44  69 NE3       29.85R
FAIRCHILD AFB  CLEAR     57  36  45 CALM      29.85S
COEURDALENE,ID CLEAR     52  45  76 E5        29.86S
DEER PARK      CLEAR     50  42  74 CALM      29.84S
$$

WAZ029>033-171100-
SOUTHEAST WASHINGTON

CITY           SKY/WX    TMP DP  RH WIND       PRES   REMARKS
PULLMAN        MOCLDY    50  29  44 CALM      29.87S
LEWISTON, ID   MOCLDY    64  35  34 CALM      29.81R
WALLA WALLA    MOCLDY    67  38  34 SE6       29.81F
PENDLETON, OR  PTCLDY    60  36  40 SE8       29.81F
$$


USA.gov is the U.S. government's official web portal to all federal, state and local government web resources and services.